Other Public Products
Issued by NWS Charleston, SC

Current Version | Previous Version | Text Only | Print | Product List | Glossary Off
Versions: 1 2 3 4 5 6 7 8 9 10 11 12 13 14 15 16 17 18 19 20 21 22 23 24 25 26 27 28 29 30 31 32 33 34 35 36 37 38 39 40 41 42 43 44 45 46 47 48 49 50

000
FPUS82 KCHS 211327
OPUCHS

TEST...KCHS/KSAV Gateway Observations...TEST
National Weather Service Charleston SC
800 AM EST SUN JAN 21 2018

NOTE: "fair" indicates few or no clouds below 12,000 feet with no
significant weather and/or obstructions to visibility.

SCZ050-WAZ558-NCZ071-TXZ119-213-PAZ071-DCZ001-FLZ074-172-MI076-
NYZ176-178-MAZ016-IL014-TNZ027-NJZ106-GAZ044-MD014-211400-

...Gateway Observations for Charleston International...

CITY           SKY/WX    TMP DP  RH WIND       PRES   REMARKS
Chas Airport   FAIR      42  31  64 CALM      30.27R
Seattle        CLOUDY    50  35  56 S22G30    29.82F
Charlotte      FAIR      35  32  88 S3        30.25R
Dallas DFW     MOCLDY    65  60  84 S15       29.87S
Dallas Love    MOCLDY    64  59  83 S13       29.89S
Philladelphia  MOCLDY    33  28  81 CALM      30.19R
Wash National  CLOUDY    37  33  85 S8        30.19S WCI  31
Baltimore      MOCLDY    37  34  89 CALM      30.17S
Miami          CLOUDY    73  66  78 E12       30.15R
Detroit        FOG       37  36  96 CALM      30.07S VSB 1/16
Newark         MOCLDY    38  29  70 SW5       30.16R WCI  34
Laguardia      MOCLDY    44  28  53 W7        30.16R
J F K          FAIR      39  31  72 W8        30.17R WCI  33
Boston Logan   MOCLDY    40  29  64 W7        30.10  WCI  35
Ft. Lauderdale MOCLDY    71  68  90 SE17      30.14R
Chicago O`Hare CLOUDY    37  35  92 S5        29.96F FOG     WCI  33
Chicago Midway CLOUDY    40  38  93 S7        29.98S FOG     WCI  35
Houston Bush   MOCLDY    66  64  93 S14       29.99F
Houston Hobby  MOCLDY    63  63 100 SE7       29.99S
Nashville      FAIR      51  38  60 CALM      30.18R
Atlanta        FAIR      40  36  86 NW5       30.25R WCI  37

$$

GAZ044-118-TXZ119-213-NCZ071-DCZ001-MDZ014-506-PAZ021-071-NJZ106-
NYZ176-178-MAZ106-OHZ011-021-055-MIZ076-KYZ091-ILZ014-INZ047-
MNZ060-ONZ431-211400-

...Gateway Observations for Savannah International...

CITY           SKY/WX    TMP DP  RH WIND       PRES   REMARKS
Savannah Arpt  MOCLDY    42  33  70 CALM      30.28R
Atlanta        FAIR      40  36  86 NW5       30.25R WCI  37
Charlotte      FAIR      35  32  88 S3        30.25R
Dallas DFW     MOCLDY    65  60  84 S15       29.87S
Houston Bush   MOCLDY    66  64  93 S14       29.99F
Wash National  CLOUDY    37  33  85 S8        30.19S WCI  31
Wash Dulles    MOCLDY    35  31  85 CALM      30.18S
Baltimore      MOCLDY    37  34  89 CALM      30.17S
Philadelphia   MOCLDY    33  28  81 CALM      30.19R
Newark         MOCLDY    38  29  70 SW5       30.16R WCI  34
Laguardia      MOCLDY    44  28  53 W7        30.16R
J F K          FAIR      39  31  72 W8        30.17R WCI  33
Boston         MOCLDY    40  29  64 W7        30.10  WCI  35
Pittsburg      FOG       40  40 100 S3        30.12R VSB 1/2
Akron          FOG       38  36  92 S6        30.10S VSB 1/4 WCI  33
Cleveland      CLOUDY    40  38  93 S3        30.12S FOG
Cincinnati     CLOUDY    47  40  76 S8        30.10R
Columbus       CLOUDY    40  40 100 S3        30.10S
Detroit        FOG       37  36  96 CALM      30.07S VSB 1/16
Chicago O`Hare CLOUDY    37  35  92 S5        29.96F FOG     WCI  33
Minneapolis    CLOUDY    34  31  88 N6        29.96R WCI  29
Indianapolis   CLOUDY    41  41 100 SE6       30.05R FOG
Toronto Canada MOCLDY    30  27  86 CALM      30.09R

$$




USA.gov is the U.S. government's official web portal to all federal, state and local government web resources and services.